RH
57 61 65 74 76 78 75 76 78 68 68 69 66 70 76 82 81 80 79 74 72 71 68 64 56 55 54 55 57 51 52 54 55 54 47 49 54 56 60 63 59 57 61 59 59 60 58 58 59 60 59 57 56 54 52 50 48 46 45 42 40 38 34 31 30 32 35 37 38 37 38 38 38 40 41 43 44 46 49 51 52 51 53 54 53 53 53 52 52 53 51 50 50 50 51 52 54
63 68 72 75 76 80 76 74 78 70 69 70 67 72 78 82 81 81 77 71 72 70 67 63 58 56 52 51 52 47 46 46 47 46 44 48 51 54 56 56 56 57 59 58 59 60 58 56 59 61 59 56 53 52 49 46 44 42 40 37 35 32 30 31 34 37 39 40 38 38 38 38 39 41 40 40 43 47 51 54 56 56 56 55 53 52 52 51 51 52 51 51 51 51 52 53 52
69 72 74 77 77 79 76 73 76 71 72 74 71 72 79 82 81 80 74 70 70 67 64 62 59 54 52 52 53 49 42 40 42 41 44 50 48 51 53 51 55 60 57 54 58 60 60 58 60 60 57 53 49 46 44 42 42 40 37 34 31 31 33 36 38 41 42 41 41 43 43 41 43 45 44 41 43 51 56 57 58 58 56 53 51 51 51 51 51 51 53 53 52 52 52 51 50
70 73 75 78 77 77 75 74 75 73 74 76 73 73 82 83 80 78 73 70 67 64 62 60 58 56 57 52 49 47 41 39 41 43 44 47 49 49 51 49 51 61 58 53 57 60 64 61 59 60 54 49 44 42 42 40 40 38 35 33 33 35 36 38 43 45 44 45 47 50 49 47 46 47 49 48 48 54 58 59 59 58 54 50 50 51 50 51 53 53 53 54 53 53 52 49 48
72 73 75 79 77 77 77 77 77 76 76 76 75 75 83 84 79 76 73 69 64 63 61 58 57 56 55 50 50 50 42 38 40 44 44 45 49 49 50 48 48 54 54 55 58 58 64 62 59 60 52 46 43 41 41 39 38 37 35 34 35 37 39 43 49 48 49 52 54 56 56 52 49 50 53 54 55 57 58 60 60 56 52 50 49 49 49 50 52 52 52 52 53 53 50 49 49
72 73 75 77 76 77 79 81 80 77 76 77 77 76 82 85 79 75 72 67 64 62 59 58 57 53 50 48 50 49 42 39 40 44 45 44 48 49 49 48 48 50 51 60 63 57 59 58 54 55 52 49 44 41 41 39 38 36 35 36 36 41 47 50 51 52 56 59 59 62 62 55 52 55 58 58 59 59 59 60 59 55 52 52 50 48 48 50 51 52 52 53 53 52 51 51 51
71 73 73 75 75 74 78 79 76 77 78 79 80 79 83 85 80 76 71 67 65 62 58 58 56 53 49 48 47 47 45 41 41 44 45 44 46 48 48 48 49 51 52 62 64 56 58 58 54 54 53 49 43 41 41 39 37 35 36 39 41 47 53 53 54 57 61 62 61 64 65 59 55 58 62 61 60 59 59 60 58 53 50 50 49 50 51 52 54 55 55 55 56 56 56 54 54
70 73 70 75 78 73 77 77 74 79 81 81 81 82 85 84 81 77 71 66 64 61 58 57 60 59 49 48 49 46 43 40 45 47 45 44 45 46 48 49 49 51 52 59 62 56 57 55 53 50 46 44 42 42 40 36 34 36 39 45 51 53 54 55 57 59 61 61 61 64 66 62 56 58 63 63 60 58 59 59 57 52 48 48 50 52 54 55 58 60 60 60 60 61 59 56 56
70 75 72 74 79 75 79 79 77 81 82 83 82 84 86 84 82 77 72 68 64 60 60 57 61 63 50 48 49 43 41 41 46 48 46 46 45 46 48 49 49 51 52 56 57 51 48 47 46 44 42 42 41 40 37 34 35 39 45 50 55 57 55 56 58 60 59 57 59 63 66 65 57 56 59 61 60 59 58 55 55 52 48 48 50 53 55 57 60 62 63 64 65 63 58 57 57
71 74 72 72 75 77 82 83 82 84 84 86 84 85 87 84 82 78 73 69 62 60 62 58 56 58 49 47 48 44 41 40 45 48 47 46 44 46 47 49 49 51 52 52 51 46 43 44 44 43 42 41 39 39 37 37 39 45 53 56 58 59 56 56 59 61 59 55 59 61 63 66 63 59 58 59 60 58 56 52 52 53 50 48 50 53 55 57 61 62 62 64 66 63 57 57 58
74 71 71 75 76 78 82 82 85 90 88 89 86 85 87 84 82 79 74 69 63 60 60 56 51 51 47 47 49 45 42 39 44 48 46 45 44 45 47 48 49 51 52 51 49 45 43 44 44 44 41 39 39 39 39 41 42 49 56 55 57 59 57 58 57 59 59 57 60 61 60 64 68 66 59 58 59 58 55 53 53 53 52 51 51 52 54 57 59 60 62 64 64 61 57 59 61
79 71 72 82 78 77 78 80 89 93 90 91 89 86 87 83 81 79 73 68 64 60 57 56 52 50 46 45 47 45 42 39 43 47 46 45 45 45 47 47 49 51 52 50 49 45 44 44 44 46 43 40 41 41 41 42 42 49 55 53 54 57 59 60 57 58 60 58 59 61 62 65 69 68 59 55 56 56 57 56 54 53 54 53 51 52 53 55 57 58 62 64 62 60 58 61 64
78 72 76 83 77 76 79 85 92 93 90 90 88 86 85 81 79 77 72 68 63 58 55 55 52 51 49 45 46 43 42 40 42 47 46 45 45 45 46 47 49 50 51 51 50 47 47 47 46 48 46 43 43 42 42 42 43 49 56 56 54 55 59 60 57 58 60 58 58 61 61 64 67 68 63 57 55 55 56 56 54 54 57 55 53 52 51 52 54 56 59 63 64 63 60 60 61
73 72 81 82 77 77 79 87 89 90 92 87 84 82 80 79 79 75 72 68 65 59 54 52 49 53 51 44 43 40 40 41 42 46 45 43 43 44 46 46 48 49 50 50 50 49 52 53 52 51 50 49 44 42 43 43 46 51 56 57 56 56 58 60 58 55 60 60 59 60 60 60 62 63 64 62 60 57 54 55 55 55 56 55 53 51 52 52 52 55 57 60 63 63 60 59 58
72 72 80 79 77 78 79 86 85 86 89 85 81 77 77 79 78 74 71 68 63 58 53 49 50 54 50 43 41 38 38 39 40 44 43 42 43 44 45 45 47 49 50 51 50 52 56 57 55 53 51 52 48 46 46 44 46 51 54 55 59 60 56 58 58 55 59 60 59 58 57 59 60 60 60 62 65 61 56 55 55 56 55 54 53 51 53 53 52 54 56 59 61 62 61 59 58
72 74 80 77 76 78 77 80 83 85 84 82 79 76 77 79 78 76 71 66 59 55 52 50 52 54 52 46 41 39 38 37 40 44 42 42 43 43 44 45 47 48 49 51 51 54 56 54 55 53 49 52 52 50 49 48 47 51 53 53 57 60 58 58 55 55 59 60 58 56 57 59 59 59 59 60 63 62 61 59 55 56 56 54 53 53 55 55 54 55 57 58 59 60 60 59 57
71 74 77 74 75 80 78 79 84 83 79 80 78 77 79 79 80 77 70 64 57 54 52 51 51 51 52 49 42 41 39 35 39 43 41 41 43 44 44 45 47 47 48 49 51 52 52 50 53 51 49 52 52 51 51 49 49 52 52 52 54 56 61 61 54 54 58 58 57 58 62 64 61 59 58 57 59 62 66 62 54 53 55 56 56 57 59 56 55 55 55 57 57 56 56 56 54
72 72 72 73 75 79 80 81 85 80 77 79 78 78 80 79 79 74 67 61 57 54 51 48 47 49 50 46 42 41 38 35 38 41 40 41 44 43 43 45 45 46 48 49 49 50 50 50 51 50 49 50 49 51 52 51 50 52 51 52 54 55 57 59 57 56 56 56 58 59 63 65 65 63 60 58 59 62 66 62 55 51 52 55 56 58 60 57 56 54 52 53 53 51 51 51 50
72 71 71 74 77 78 79 81 83 82 79 79 79 79 79 80 77 73 67 60 55 52 48 45 43 44 46 43 41 40 37 35 36 38 38 39 43 42 42 44 44 46 48 49 48 48 50 50 51 50 49 49 50 52 53 53 50 50 52 53 54 55 54 54 57 59 58 57 57 59 60 62 62 62 62 61 60 59 62 63 58 52 49 50 52 55 57 56 55 53 50 49 48 47 46 43 43
69 71 76 76 77 77 77 79 82 83 82 79 80 79 79 80 77 75 71 60 54 52 47 43 39 38 40 40 39 39 37 35 35 35 36 39 41 40 40 42 44 46 47 48 48 48 49 49 49 49 48 49 50 52 52 52 51 52 54 55 54 53 52 51 53 56 57 56 56 58 59 59 58 59 60 61 61 59 60 62 61 56 50 47 48 49 50 53 56 53 50 47 45 46 44 40 40
67 71 79 75 75 77 76 78 81 84 84 82 80 80 82 82 80 76 70 61 57 54 48 42 38 36 38 38 37 38 35 34 34 32 35 39 39 38 37 39 43 45 46 48 48 48 49 49 48 47 47 48 49 53 52 50 51 53 52 52 52 50 49 51 53 54 56 56 58 59 57 56 56 57 59 62 62 60 60 62 62 59 55 53 51 49 48 52 57 55 53 50 48 49 47 44 42
66 66 72 72 74 76 75 77 80 83 85 84 81 82 84 83 82 76 70 67 64 56 48 42 38 37 39 38 36 36 34 33 32 33 37 37 35 36 37 37 40 43 46 49 50 47 48 50 49 48 47 46 49 52 51 49 51 53 49 47 48 47 47 49 53 55 56 58 60 60 59 58 56 56 60 61 60 60 61 61 60 58 57 59 58 57 54 53 57 55 52 51 50 52 51 47 44
67 65 67 68 71 70 71 76 79 81 84 85 84 84 85 85 83 78 72 71 67 58 49 42 38 37 39 38 36 35 34 32 31 33 36 32 32 35 36 37 40 41 45 49 50 47 47 48 49 49 48 46 48 49 48 48 50 50 46 44 46 46 46 48 53 56 56 57 60 61 63 63 60 58 60 60 61 62 59 57 57 55 56 57 57 59 58 57 60 57 50 47 47 48 46 43 43
67 69 66 63 65 64 67 72 76 80 82 85 86 86 85 87 86 80 75 72 68 60 49 42 38 36 39 39 36 35 35 32 33 34 33 32 34 36 37 38 38 38 43 47 48 45 46 47 45 46 47 47 47 47 47 48 49 47 44 45 46 46 48 51 54 56 57 58 58 60 61 64 64 61 60 61 63 61 55 53 53 53 53 54 55 57 58 57 58 56 53 50 48 46 44 42 42
65 69 66 61 62 61 63 66 71 78 83 85 87 86 85 87 88 82 77 73 67 60 50 43 39 37 39 38 36 35 36 33 34 35 33 33 36 38 40 37 36 38 40 44 45 45 45 45 43 42 43 45 46 47 47 47 46 45 46 47 46 46 50 53 55 56 58 61 59 57 59 62 63 61 60 61 62 58 54 53 53 53 51 51 54 55 57 57 55 54 53 52 51 49 47 46 46
62 67 63 59 61 59 59 62 69 77 83 87 85 85 86 86 87 83 79 75 67 58 49 44 41 39 38 37 35 36 37 35 34 33 32 33 35 39 40 36 36 38 39 41 44 45 44 43 42 40 40 40 42 47 48 46 45 45 47 46 45 47 51 52 54 57 61 63 59 57 56 59 63 61 59 58 58 56 54 53 53 53 50 49 51 51 52 55 54 53 52 52 52 51 49 48 47
60 64 61 58 60 58 57 61 69 77 81 84 84 85 88 87 86 82 80 77 69 59 51 46 43 42 38 35 35 37 37 36 34 32 32 33 35 38 36 34 36 38 39 39 41 45 43 42 42 40 38 37 41 46 47 45 44 45 46 48 49 49 50 52 56 60 63 63 58 56 55 56 61 60 57 56 56 57 56 53 52 51 49 46 47 47 48 50 50 50 50 51 52 51 50 49 47
59 63 61 60 61 59 58 60 66 74 78 81 83 85 87 87 86 83 81 77 71 62 55 50 46 46 41 34 34 37 39 37 36 32 30 31 33 35 33 32 36 38 38 38 39 42 42 43 44 40 37 37 41 44 46 44 43 44 46 50 52 50 51 56 59 62 64 61 57 56 55 55 59 57 55 56 56 56 56 54 52 50 48 47 46 46 45 45 45 45 45 46 50 51 49 47 45
57 60 60 63 64 62 62 63 64 70 78 79 81 85 85 84 84 84 81 76 71 64 58 54 49 49 44 36 34 37 39 38 36 33 30 30 31 31 31 32 37 38 38 39 38 38 40 43 42 40 38 37 39 42 43 43 43 43 47 51 51 49 53 58 62 64 63 59 57 56 54 53 54 55 53 53 56 56 54 54 53 51 48 47 47 46 44 43 44 44 44 45 48 49 46 45 44
55 56 58 63 67 67 65 67 68 71 78 77 78 84 84 82 81 82 81 74 70 64 58 56 53 50 45 38 35 35 37 37 35 33 31 30 30 29 30 32 36 38 38 39 37 36 38 39 40 41 39 36 37 41 41 41 43 44 49 51 48 50 56 61 64 64 62 59 57 54 53 53 52 54 52 52 57 59 55 54 54 52 49 47 47 46 45 45 46 45 46 48 48 47 45 44 44
51 52 56 62 67 71 68 67 71 75 79 76 77 82 82 81 80 80 80 76 71 64 58 55 54 52 46 38 35 33 34 37 35 33 32 31 30 29 30 32 35 38 39 39 38 37 37 35 37 40 37 35 36 38 38 40 44 46 49 49 48 52 57 63 64 63 62 60 59 56 52 53 52 52 52 52 56 58 57 57 57 54 50 47 46 44 46 47 48 48 49 50 48 47 46 46 45
46 52 59 61 64 69 69 69 72 76 77 74 76 80 81 82 80 81 81 78 73 65 60 55 54 54 47 38 35 33 33 36 35 32 33 34 32 30 31 34 35 38 39 39 38 38 39 33 32 37 34 32 33 34 34 36 41 46 49 48 49 54 58 63 64 62 61 59 63 61 52 52 52 50 51 51 54 57 56 57 57 53 49 48 45 44 47 48 48 49 49 50 49 48 48 47 47
45 51 56 59 62 67 72 72 72 75 76 75 77 80 83 80 78 82 83 80 74 67 64 58 54 53 47 39 37 33 30 33 34 33 35 36 35 31 32 35 36 39 39 39 38 35 39 34 29 36 35 30 31 31 31 32 37 44 47 47 51 54 59 64 63 62 60 56 63 63 53 52 51 48 49 49 53 56 56 55 54 51 49 48 45 45 48 48 48 48 46 46 47 48 47 46 47
44 50 52 57 63 68 75 73 70 74 77 77 77 80 83 81 79 81 82 81 74 67 66 61 55 54 48 41 37 34 31 32 32 34 37 37 35 32 33 36 37 39 39 39 36 33 37 35 30 36 38 33 32 31 31 32 35 41 44 47 50 54 60 64 63 61 59 56 59 57 51 51 50 48 48 48 51 53 53 53 51 49 48 47 46 46 47 48 49 48 45 42 45 48 47 45 44
46 51 52 56 60 65 74 73 68 72 77 78 79 80 82 84 82 79 80 80 73 68 67 62 56 54 49 42 38 36 33 32 31 33 35 35 36 36 36 38 38 39 38 39 37 32 34 35 31 33 36 36 34 31 31 31 34 38 43 48 50 53 58 61 60 59 59 58 56 52 49 52 50 48 48 48 49 50 50 51 49 48 49 48 48 48 47 47 47 46 45 42 43 46 46 45 42
44 48 50 53 56 59 65 66 64 69 76 78 78 79 80 82 82 78 78 76 70 69 68 62 57 54 50 44 40 39 36 34 32 32 32 33 36 38 38 38 38 39 39 39 36 30 30 32 32 30 32 35 34 32 30 32 35 37 43 49 50 52 55 55 56 58 58 57 54 51 50 51 49 48 48 47 46 48 50 49 48 48 49 49 49 48 48 48 46 44 44 42 43 45 45 44 42
40 46 51 53 54 54 54 55 57 63 69 71 71 76 79 79 78 77 77 73 67 67 66 62 58 55 52 46 42 39 37 35 34 32 32 34 35 37 38 39 37 37 39 37 34 30 28 29 31 31 32 33 33 32 31 33 38 38 41 47 49 51 52 51 52 55 57 54 51 49 49 48 47 47 47 46 46 47 49 49 49 49 48 48 48 48 48 47 45 44 42 41 44 47 47 45 42
41 47 54 56 53 51 50 50 55 58 63 64 63 70 75 73 74 76 75 71 66 65 67 65 61 57 53 48 44 40 37 36 35 34 33 34 34 34 36 38 36 37 38 35 32 31 29 30 31 31 33 32 31 31 30 32 35 37 39 43 49 52 50 49 51 53 55 52 47 45 46 46 47 47 46 45 46 46 48 49 49 48 47 47 47 47 46 45 45 43 41 41 44 46 46 45 43
40 46 53 55 51 50 51 52 54 56 61 63 58 61 69 70 72 73 69 69 69 66 68 69 64 60 55 50 47 43 39 37 35 36 34 33 35 35 34 36 36 36 36 33 31 32 30 31 32 31 33 33 30 28 28 29 30 32 36 41 47 50 48 48 51 51 51 51 45 42 44 45 46 47 46 45 46 46 47 48 49 48 47 46 46 47 46 45 45 43 43 42 43 43 43 43 43
38 45 51 51 49 49 50 53 56 55 57 59 55 55 63 66 69 69 64 65 71 71 71 71 68 63 59 53 50 48 43 38 36 36 36 34 36 37 35 34 35 36 37 34 33 34 32 32 32 32 32 31 30 28 28 29 28 29 31 36 42 45 46 46 47 48 47 46 43 41 42 43 44 45 44 44 44 45 45 46 47 47 46 46 47 47 46 46 45 44 43 42 43 44 44 43 42
36 42 47 48 48 50 48 50 55 54 54 54 52 56 63 64 66 68 62 59 68 75 74 73 71 67 64 57 52 50 47 40 35 36 37 36 36 36 36 34 34 35 37 37 34 35 35 33 32 32 32 31 29 29 29 29 29 29 29 32 37 39 39 42 45 47 45 42 43 44 41 41 41 41 42 43 43 43 44 45 45 45 46 46 46 47 48 47 46 46 44 41 45 48 47 44 42
38 38 43 46 48 50 49 49 52 53 57 56 53 59 64 62 66 71 67 61 65 74 77 77 76 73 70 63 54 50 49 44 38 35 36 37 36 36 37 36 35 34 36 37 36 35 35 33 31 32 32 31 29 29 30 30 29 31 30 31 36 37 36 39 43 47 47 44 48 48 42 41 40 40 41 42 42 41 43 44 43 44 45 44 45 46 47 46 47 48 44 43 46 46 46 45 44
42 38 38 43 46 48 48 50 50 49 53 52 50 57 61 61 67 72 72 71 70 74 79 80 77 76 74 69 62 54 50 47 42 38 35 35 36 36 37 37 35 34 35 36 36 36 34 31 30 31 31 30 29 28 29 30 29 30 30 31 35 39 39 39 40 44 47 47 50 48 43 42 42 41 41 40 40 39 40 42 42 43 43 43 45 44 45 47 49 48 43 42 44 41 42 47 46
39 35 33 38 42 45 48 51 51 47 46 46 48 52 55 63 70 72 74 77 79 80 81 79 75 74 75 75 71 64 57 51 46 42 36 34 35 35 36 37 35 35 35 34 35 36 33 30 30 29 29 29 28 28 28 29 29 30 31 31 34 39 41 40 36 39 44 44 45 46 45 44 43 42 41 39 38 38 39 39 40 42 42 43 42 42 45 49 47 43 40 40 39 37 39 45 47
33 29 26 32 37 41 45 50 50 47 46 47 49 48 51 63 70 70 71 73 77 78 79 79 76 73 74 74 74 71 66 58 50 46 41 36 35 35 36 36 36 35 36 35 34 34 31 29 30 29 27 28 28 27 28 28 29 30 30 31 32 36 41 41 39 40 41 40 41 44 45 45 44 43 42 39 39 40 40 40 38 39 40 40 42 44 46 46 43 40 40 39 38 37 37 41 45
28 25 23 27 33 37 40 45 47 47 48 48 48 47 51 62 65 62 65 68 69 72 73 76 77 75 74 73 74 74 71 63 55 50 47 42 38 37 36 36 36 36 36 36 34 34 31 28 29 28 26 27 26 26 27 27 28 29 29 30 30 33 36 38 41 41 40 39 41 42 43 45 45 45 44 41 41 42 42 42 40 39 39 39 41 44 45 42 40 39 40 40 39 39 38 38 42
24 21 21 23 28 33 36 40 41 44 48 46 44 45 47 58 63 60 65 69 66 68 70 70 73 74 73 73 73 73 72 67 60 53 50 48 44 42 39 38 36 36 36 36 35 35 33 28 26 27 27 26 25 26 26 26 27 27 28 29 29 31 33 35 37 39 40 41 41 42 44 44 44 45 46 45 43 44 44 44 42 41 41 40 40 41 42 43 43 42 40 40 40 40 38 38 40
21 19 20 22 26 30 34 37 37 40 46 42 42 44 44 55 64 62 65 69 66 66 64 61 64 67 68 68 69 71 72 70 65 59 53 49 48 45 43 40 38 37 36 36 36 35 33 28 24 26 27 27 25 25 25 26 26 26 27 28 28 29 31 33 35 37 40 42 43 43 44 44 44 44 46 46 45 45 44 43 43 42 41 41 40 40 41 43 45 44 40 39 40 39 38 38 38
23 22 22 24 26 28 33 37 36 37 40 38 38 42 47 59 65 63 64 66 67 67 61 55 57 61 64 64 66 69 72 72 69 65 60 53 49 47 45 43 40 39 38 37 37 36 35 30 25 24 25 26 26 24 24 25 25 25 26 26 27 28 30 32 34 36 39 42 43 44 43 43 43 43 44 46 46 44 43 42 42 41 40 40 41 41 41 40 41 42 40 39 39 38 38 39 39
22 24 23 24 25 26 31 34 33 35 35 32 35 42 53 64 65 61 63 65 67 69 65 57 54 57 60 61 63 65 68 71 70 69 66 61 55 50 47 46 43 41 40 38 37 37 35 31 25 24 24 25 25 25 25 24 23 25 25 25 26 26 28 30 33 36 38 40 41 41 41 42 41 41 42 43 44 44 43 41 41 41 40 38 38 39 40 39 38 39 40 40 40 40 39 40 41
21 23 22 23 23 22 25 26 28 32 32 29 33 41 52 63 65 61 61 64 67 69 67 59 53 52 55 57 60 62 64 67 69 69 69 66 61 57 53 50 47 45 42 41 40 37 34 30 26 25 24 24 24 24 25 26 24 24 25 25 24 24 27 28 30 34 36 38 39 39 39 39 40 40 38 37 39 39 39 38 38 38 38 37 37 37 38 38 37 37 39 41 42 41 39 40 41
21 21 22 24 24 21 23 26 24 26 29 29 33 43 53 61 64 59 57 62 64 65 65 61 54 51 50 52 56 59 61 62 64 67 68 67 65 63 61 57 53 50 47 43 42 40 34 29 26 26 25 24 23 23 25 25 25 24 23 24 24 24 25 27 29 31 32 34 35 35 34 34 37 38 34 32 33 33 35 36 36 36 36 37 38 38 37 37 37 37 37 38 41 42 41 41 41
21 20 22 24 23 22 25 28 24 22 27 30 32 44 55 57 59 57 56 60 60 58 61 60 56 53 49 49 50 52 56 58 59 63 66 67 66 65 65 64 60 56 52 47 43 40 36 31 28 27 26 25 23 23 23 24 25 25 23 23 23 23 23 25 27 28 29 31 31 31 31 31 33 34 33 32 31 30 31 33 34 35 34 35 37 37 38 38 38 38 37 36 39 42 41 41 42
22 21 22 22 22 22 23 25 23 19 24 30 33 41 47 48 56 60 57 59 58 53 55 57 57 57 55 51 47 45 49 52 56 60 61 64 67 66 66 66 65 61 57 51 46 42 38 35 32 29 27 26 24 23 23 23 24 25 24 23 22 22 22 23 25 26 27 28 29 28 28 29 30 31 33 33 31 29 29 29 30 31 31 32 34 35 37 38 39 39 38 36 38 39 39 39 40
22 22 22 23 23 23 22 24 24 18 20 30 35 39 43 45 54 62 63 62 60 54 52 53 55 58 58 55 50 46 46 49 54 58 59 61 65 66 67 68 68 65 60 55 50 46 42 38 35 32 30 29 26 24 23 22 23 24 25 24 22 21 21 21 23 25 25 25 27 27 26 27 26 27 30 30 28 29 29 27 26 27 29 30 30 32 34 36 37 37 37 37 38 37 36 38 39
22 22 22 23 24 24 23 23 24 19 19 30 37 38 45 50 52 60 66 66 64 60 56 51 52 55 56 56 53 50 49 50 54 58 60 61 63 66 68 69 70 68 63 59 55 51 48 44 40 37 34 32 30 27 24 22 23 23 24 24 23 22 22 21 21 23 23 23 24 25 25 25 25 25 27 27 27 29 30 29 28 28 29 30 29 30 31 33 35 35 35 39 41 37 35 36 40
23 22 23 23 24 25 25 23 23 21 22 31 35 35 44 52 52 55 61 64 64 64 62 54 49 51 53 54 53 52 52 53 56 61 63 63 64 67 69 70 72 71 66 60 57 55 54 51 46 42 39 35 33 30 27 24 23 22 23 23 23 23 22 21 22 21 22 22 22 23 23 23 24 23 24 25 24 26 28 29 32 33 32 32 30 29 30 30 33 35 34 36 38 36 34 36 38
23 23 23 23 23 24 25 24 23 22 24 32 35 39 48 50 50 52 56 57 58 60 61 57 48 47 51 53 53 53 53 54 57 62 65 67 67 67 68 69 72 72 67 61 59 58 57 56 51 47 45 41 37 34 30 26 24 23 22 22 23 23 22 21 21 21 20 21 21 22 22 22 22 22 23 22 22 24 26 27 31 34 32 31 29 28 29 30 31 33 34 35 36 34 33 34 34